Location: ??????
(33.3472°N, 35.4764°E)
Time: 15:49:58
(UTC+00:00)

Cosmos 1725 Rocket - Visible Passes

Search period start: 18 November 2019 00:00
Search period end: 28 November 2019 00:00
Orbit: 963 x 990 km, 82.9° (Epoch: 18 November)

Date Brightness Start Highest point End Pass type
(mag) Time Alt. Az. Time Alt. Az. Time Alt. Az.
18 Nov 4.1 02:57:08 10° S 03:03:22 85° E 03:09:41 10° N visible
18 Nov 6.8 15:45:11 10° NW 15:48:55 17° W 15:52:38 10° WSW visible
19 Nov 6.5 01:39:56 10° SE 01:44:10 19° E 01:48:27 10° NE visible
19 Nov 4.2 03:23:00 10° SSW 03:29:02 50° W 03:35:09 10° N visible
20 Nov 5.4 02:03:48 10° SSE 02:09:28 38° E 02:15:11 10° NNE visible
21 Nov 4.2 02:28:42 10° S 02:34:55 73° E 02:41:12 10° N visible
21 Nov 6.7 15:16:15 10° NW 15:20:33 20° W 15:24:50 10° SW visible
22 Nov 6.6 01:12:07 10° ESE 01:15:48 16° E 01:19:30 10° NE visible
22 Nov 4.0 02:54:23 10° SSW 03:00:32 59° W 03:06:46 10° N visible
23 Nov 5.6 01:35:37 10° SSE 01:41:04 32° E 01:46:32 10° NNE visible
23 Nov 4.7 03:20:53 10° SW 03:26:20 31° WNW 03:31:49 10° NNW visible
24 Nov 4.4 02:00:19 10° S 02:06:28 63° E 02:12:41 10° NNE visible
24 Nov 5.4 03:48:38 10° WSW 03:52:18 16° WNW 03:56:02 10° NW visible
25 Nov 6.7 00:44:31 10° ESE 00:47:28 14° E 00:50:23 10° NE visible
25 Nov 3.9 02:25:50 10° SSW 02:32:03 69° W 02:38:21 10° N visible
25 Nov 7.1 15:15:52 10° WNW 15:17:21 11° W 15:18:49 10° W visible
26 Nov 5.8 01:07:31 10° SE 01:12:40 28° E 01:17:51 10° NNE visible
26 Nov 4.5 02:52:07 10° SW 02:57:48 36° WNW 03:03:34 10° NNW visible
27 Nov 4.6 01:32:00 10° SSE 01:38:03 53° E 01:44:10 10° NNE visible
27 Nov 5.2 03:19:28 10° WSW 03:23:44 19° WNW 03:28:03 10° NNW visible
